Regional Weather Roundup
Issued by NWS Wakefield, VA

Home | Current Version | Previous Version | Graphics & Text | Print | Product List | Glossary On
Versions: 1 2 3 4 5 6 7 8 9 10 11 12 13 14 15 16 17 18 19 20 21 22 23 24 25 26 27 28 29 30 31 32 33 34 35 36 37 38 39 40 41 42 43 44 45 46 47 48 49 50
000
ASUS41 KAKQ 281610
RWRAKQ

REGIONAL WEATHER ROUNDUP
NATIONAL WEATHER SERVICE WAKEFIELD VA
1100 AM EST FRI NOV 28 2014

Note: "fair" indicates few or no clouds below 12,000 feet with no
significant weather and/or obstructions to visibility. * = Denotes
station may not report precipitation (e.g., rain,snow,etc.),
thunder or fog.

VAZ042-051-052>054-056-281700-
NORTHERN VIRGINIA

CITY           SKY/WX    TMP DP  RH WIND       PRES   REMARKS
WASH NATIONAL  PTSUNNY   39  22  50 W12       30.33F
DULLES         MOSUNNY   35  22  58 NW9       30.32F
FORT BELVOIR   MOSUNNY   38  19  46 W15       30.32F
QUANTICO       SUNNY     40  18  41 N17G25    30.34F
FREDERICKSBRG* MOSUNNY   39  20  46 NW10G24   30.32F
STAFFORD*      PTSUNNY   39  20  46 NW15G21   30.37F
WARRENTON      MOSUNNY   39  26  59 NW7       30.32F
CULPEPER*      SUNNY     39  18  41 N7        30.32F
MANASSAS*      NOT AVBL
LEESBURG*      PTSUNNY   37  28  70 NW9G18    30.32F
WINCHESTER     PTSUNNY   34  19  55 W14       30.30F WCI  24
FRONT ROYAL*   CLOUDY    34  19  55 NW6       30.30S
LURAY*         MOSUNNY   36  21  55 W10G17    30.31S
$$

VAZ048-049-060>072-079>083-281700-
CENTRAL AND SOUTH CENTRAL VIRGINIA

CITY           SKY/WX    TMP DP  RH WIND       PRES   REMARKS
RICHMOND       MOSUNNY   41  20  43 NW18      30.33F
CHESTERFIELD*  MOSUNNY   41  18  38 NW15      30.34F
PETERSBURG*    SUNNY     41  20  43 NW9       30.34F
HANOVER        SUNNY     39  20  46 NW9G16    30.35F
TAPPAHANNOCK*  SUNNY     40  17  40 W14G23    30.32F
QUINTON*       SUNNY     38  23  53 W14       30.33F
CHARLOTTSVILLE MOSUNNY   37  15  40 VRB7      30.33S
GORDONSVILLE*  PTSUNNY   37  17  45 W7G16     30.33S
ORANGE*        SUNNY     37  19  48 W8        30.34S
LOUISA*        MOSUNNY   37  19  48 W10       30.31F
BUMPASS*       MOSUNNY   37  19  47 NW7       30.33S
FARMVILLE*     SUNNY     43  19  37 N7        30.34S
CREWE*         SUNNY     38  15  37 N10G16    30.34F
FORT PICKETT*  SUNNY     38  19  47 NW10G17   30.34S
CHASE CITY*    SUNNY     40  21  46 NW8G16    30.35F
CLARKSVILLE*   SUNNY     37  21  52 N5        30.35F
SOUTH HILL*    SUNNY     38  22  51 NW8       30.40F
LAWRENCEVILLE* SUNNY     39  24  54 NW8       30.34F
$$

VAZ088>098-281700-
SOUTHEAST VIRGINIA

CITY           SKY/WX    TMP DP  RH WIND       PRES   REMARKS
NORFOLK        SUNNY     40  20  44 N14G28    30.32R
VIRGINIA BEACH MOSUNNY   42  25  50 N20       30.30F
NORFOLK NAVAL  MOSUNNY   44  23  43 NW20      30.33S
WEST POINT*    SUNNY     42  21  42 NW9G20    30.34S
SALUDA*        FAIR      39  22  50 NW9G18    30.30S
NEWPORT NEWS   SUNNY     42  23  46 NW12G24   30.32S
LANGLEY AFB    SUNNY     40  23  52 NW17G24   30.32S
FORT EUSTIS    SUNNY     41  20  43 N12G21    30.30F
WILLIAMSBURG*  SUNNY     45  27  49 N13G23    30.32F
HR EXEC AP*    MOSUNNY   39  27  60 N7        30.34S
FRANKLIN*      SUNNY     39  25  56 NW7       30.33F
WAKEFIELD      SUNNY     41  23  48 NW8       30.33F
$$

VAZ020-022-025-037-045-281700-
WEST CENTRAL AND SOUTHWEST VIRGINIA

CITY           SKY/WX    TMP DP  RH WIND       PRES   REMARKS
STAUNTON*      MOSUNNY   33  14  47 NW6       30.33F
WAYNESBORO*    MOSUNNY   31  13  48 W7        30.30F
HOT SPRINGS VA CLOUDY    22  13  67 W10G16    30.15S WCI  11
LYNCHBURG      MOSUNNY   36  18  48 VRB6      30.34S
DANVILLE       SUNNY     39  19  44 N8G16     30.37S
SOUTH BOSTON*  SUNNY     39  20  45 NW8       30.36F
MARTINSVILLE   SUNNY     37  17  45 NW15      30.37F
ROANOKE        PTSUNNY   32  16  51 W7        30.36F
BLACKSBURG     FLURRIES  28  23  80 W8        30.32S
DUBLIN*        MOSUNNY   32  18  55 W10       30.32F WCI  23
MARION*        CLOUDY    28  16  62 W15       30.32S WCI  16
HILLSVILLE*    CLOUDY    25  16  68 NW6       30.27S
RICHLANDS*     CLOUDY    27  18  68 W3        30.31S
WISE*          CLOUDY    27  19  74 SW5       30.31F
ABINGDON*      PTSUNNY   30  18  61 W8        30.35S
$$

MDZ021>025-VAZ099-100-281700-
SOUTHERN MARYLAND AND THE DELMARVA PENINSULA

CITY           SKY/WX    TMP DP  RH WIND       PRES   REMARKS
PATUXENT RIVER MOSUNNY   40  22  48 NW17      30.29F
BAY BRIDGE APT   N/A     37  19  48 NW13G20   30.30S
LEONARDTOWN    SUNNY     39  21  48 NW9         N/A
DOVER          SUNNY     39  20  47 NW20G30   30.23F
GEORGETOWN     MOSUNNY   40  20  44 N10G22    30.26F
EASTON         SUNNY     41  23  48 N16G28    30.32S
CAMBRIDGE      MOSUNNY   41  23  48 NW18      30.27F
SALISBURY      PTSUNNY   42  24  49 NW18      30.26F
OCEAN CITY     SUNNY     40  23  50 N17G25    30.25F
WALLOPS ISLAND SUNNY     40  20  44 N13G21    30.27F
ACCOMACK*      MOSUNNY   41  23  48 N10G23    30.28F
$$

NCZ012>017-030>032-281700-
NORTH CENTRAL AND EASTERN NORTH CAROLINA

CITY           SKY/WX    TMP DP  RH WIND       PRES   REMARKS
ROANOKE RAPIDS SUNNY     39  23  52 NW10G18   30.35F
RALEIGH        MOSUNNY   40  19  43 NW9       30.37F
ELIZABETH CITY MOSUNNY   44  27  51 N13       30.32S
AHOSKIE*       SUNNY     39  22  50 NW10G16   30.35S
EDENTON*         N/A     41  25  53 N13       30.33F
CURRITUCK*     SUNNY     41  19  39 NW12G21   30.32S
KILL DEVIL HLS MOSUNNY   42  25  51 NW14G24   30.28F
MANTEO         SUNNY     41  26  53 NW16G25   30.31S
CAPE HATTERAS  SUNNY     42  29  59 N9G20     30.30S
TARBORO*       SUNNY     42  25  50 NW9       30.37F
GOLDSBORO      SUNNY     42  23  46 N14       30.34F
WASHINGTON     SUNNY     41  24  51 N9        30.35F
GREENVILLE     SUNNY     41  23  48 N9        30.36F
NEW BERN       SUNNY     43  25  49 N12       30.36S
WILMINGTON     SUNNY     44  23  43 N13       30.35F
$$

VAZ048-281700-
ELSEWHERE

CITY           SKY/WX    TMP DP  RH WIND       PRES   REMARKS
HARRISBURG PA  CLOUDY    34  17  50 NW12      30.27S
BALTIMORE      MOSUNNY   38  17  42 W20       30.29F
ANNAPOLIS      PTSUNNY   39  23  52 NW15      30.30S
ANDREWS AFB    MIX PCPN  36  26  67 NW14      30.30F
PHILADELPHIA   PTSUNNY   39  19  44 NW15G25   30.25F
WILDWOOD NJ*   SUNNY     39  19  45 NW12G24   30.21F
HENDERSON NC   SUNNY     39  19  44 NW9       30.35F
GREENSBORO     MOSUNNY   37  17  44 NW8       30.36R
ROCKY MOUNT    SUNNY     41  21  44 NW10      30.36F
$$

VAZ100-281700-
MARINE

STATION/POSITION TIME  TEMP    WIND        PRES    WAVE   SWELL
                       AIR SEA DIR/SP/G            HT/PER HT/PER
                 (UTC) (F)     (DEG/KT/KT) (MB)    (FT/S) (FT/S)
CAPE MAY NJ      1600   39 46  320/  8/ 15 1023.5S
LEWES DE         1600   38 45  320/ 22/ 27 1024.1F
15NM E FENWICK I 1600   40 54              1022.6F   6/ 5
OCEAN-CITY-INLET 1600   39 47  350/ 12/ 17 1024.0S
WACHAPREAGUE VA  1600   41 44  320/  6/ 12 1025.1F
THOMAS POINT MD  1600   37 45  310/ 15/ 20 1026.7F
GOOSES REEF MD   1600   38     340/ 17/ 23 1026.2S
COVE POINT MD    1600   37     350/ 18/ 21 1025.6F
SOLOMONS ISLAND  1600      47                N/A
BISHOPS HEAD MD  1600   40 41  340/ 14/ 21 1025.0F
PINEY POINT MD   1600          340/ 17/ 18   N/A
POTOMAC MD       1600   39     350/ 14/ 21 1025.4S
CAMBRIDGE MD     1600   38 43  320/ 14/ 20 1025.2F
LEWISETTA VA     1600   38 45  340/ 12/ 19 1025.8F
RAPPAHANNOCK LGT 1600          330/ 23/ 26 1025.8F
STINGRAY PT      1600   40     330/ 17/ 23 1026.2F
YORK RVR RNG VA  1600   38     340/ 17/ 23 1026.0S
YORKTOWN VA      1600   38 50  310/ 16/ 19 1026.4F
JAMESTOWN VA     1600   38     350/ 16/ 21   N/A
DOMINION TERM VA 1600   39     340/ 18/ 24 1026.8R
KIPTOPEKE VA     1600      51  340/ 19/ 23   N/A
CHES BAY BRIDGE  1600   38 49  310/ 21/ 25 1026.1R
CAPE HENRY VA    1600   38     310/ 15/ 21 1025.0S
CHESAPEAKE LGHT  1500   39     330/ 24/ 27 1025.9R
WILLOUBY STN VA  1600   39     350/ 19/ 23 1025.1R
S CRANEY ISL VA  1600          300/ 13/ 19 1026.4S
CAPE HENRY BUOY  1600      55                N/A     5/ 5
1ST LANDING BUOY 1600   40     330/ 17/ 23 1025.8R
CAPE CHARLES BUO 1600      53                N/A     4/ 5   2/13
64NM E OF VA BCH 1600   43 64  350/ 23/ 29 1023.6F   8/ 7   2/14
DUCK PIER NC     1600   40 52  330/ 22/ 24 1024.8F
44100 DUCK FRF   1600      56                N/A     7/ 6   2/11
44056 DUCK FRF   1600      54                N/A     6/ 6   2/13
OREGON INLET NC  1600   42 51  330/ 16/ 21 1025.8R
HATTERAS NC      1600   42 52  360/ 19/ 22 1026.4S
CAPE LOOKOUT NC  1500   41     360/ 15/ 18 1026.7R
$$



USA.gov is the U.S. government's official web portal to all federal, state and local government web resources and services.